VHHH

Hong Kong International Airport

Airport
ICAO code
VHHH
IATA Code
HKG
Summary
ICAO Region
APAC
ICAO Territory
Location

Chek Lap Kok Island,

Serving
Hong Kong
Elevation
30 ft
Coordinates
22° 18' 32" N , 113° 54' 53" E
KCC
Airport BS
Bird Strike
Airport LOS
Parallel Runway Operation
Metar
Observation
VHHH 070100Z 36003KT 9999 FEW008 SCT025 21/17 Q1017 NOSIG
Station
Hong Kong Inter-National Airport
Date/Time
2023-02-07 01:00:00
Wind direction
360°
Wind speed
03 kts
Lowest cloud amount
few clouds
Temperature
21°C
Dew point
17°C
Humidity
77%
QNH
1017 hPa
Weather condition
n/a

Description

Hong Kong International Airport is the main airport in Hong Kong. It is colloquially known as Chek Lap Kok Airport, because it is located on the island of Chek Lap Kok using land reclamation. This also distinguishes it from its previous location at Kai Tak which closed in July 1998 .

Climatology

Humid “subtropical” climate (Köppen climate classification Cwa) - characterized by hot, humid summers and cool winters. Winter months are drier than the summer months. Winter rainfall (and sometimes snowfall) is associated with large storms that the westerlies steer from west to east. Most summer rainfall occurs during thunderstorms and the area is subject to frequent tropical typhoons.

SKYbrary Partners:

Safety knowledge contributed by: